Wind_Speed
28 26 23 25 23 24 25 23 23 25 28 27 28 27 25 25 24 24 20 18 18 18 17 17 17 15 16 19 21 20 25 27 25 21 16 22 17 8
34 35 31 28 26 24 25 25 25 26 29 30 27 28 28 27 26 27 25 22 19 22 22 20 24 21 22 21 23 25 24 21 20 26 25 17 14 14
38 39 38 35 31 27 28 28 28 28 30 30 32 30 29 29 29 28 27 26 25 25 24 24 24 27 26 21 22 29 36 33 31 33 28 26 23 21
42 41 41 38 37 33 31 31 31 30 32 33 33 34 31 30 31 31 32 32 33 31 32 29 30 33 36 38 40 39 38 37 39 41 38 34 34 33
47 45 45 43 39 39 37 37 35 34 36 37 34 35 36 34 36 36 38 37 38 37 37 39 43 44 41 42 43 44 45 42 43 43 41 42 44 45
54 52 50 47 47 43 43 43 42 42 43 44 45 43 42 42 42 41 40 41 43 47 46 49 50 50 50 52 50 49 49 47 48 48 48 50 51 52
62 59 57 55 53 52 48 49 50 51 50 49 49 50 50 46 46 52 54 53 52 53 55 56 58 57 56 55 56 56 58 57 56 57 56 58 59 60
74 71 67 65 62 59 58 56 56 57 56 55 53 55 55 56 58 60 61 60 61 61 62 62 64 65 66 67 69 69 68 66 66 68 69 68 69 69
78 80 81 78 73 71 69 66 66 65 65 64 63 65 67 66 68 67 67 68 69 71 71 74 74 75 74 75 76 77 79 79 78 78 78 80 80 80
77 80 83 87 86 83 82 79 78 75 73 73 74 77 75 77 78 78 79 78 77 77 78 79 80 80 80 81 81 82 84 85 86 86 89 89 90 90
80 81 79 87 89 93 93 93 89 88 85 84 84 86 87 87 88 90 88 87 87 88 89 89 90 88 89 90 91 93 95 95 96 96 96 98 96 94
88 85 82 85 92 99 98 101 99 98 95 92 95 96 96 96 98 97 97 98 98 98 99 96 98 98 98 99 99 100 101 100 101 100 101 99 100 99
88 89 89 89 90 93 100 104 104 106 101 100 101 101 102 103 103 104 104 104 105 105 105 106 108 107 106 106 107 107 108 107 104 100 97 94 92 89
86 88 90 87 92 91 95 97 104 106 106 108 109 108 107 107 109 108 107 111 108 105 100 99 100 100 99 98 97 100 98 96 94 89 87 84 82 80
91 90 91 89 86 93 95 97 98 102 104 106 107 107 110 113 111 109 109 108 101 97 96 94 92 89 86 87 88 86 83 81 81 79 77 75 74 73
94 95 92 92 87 87 89 95 96 97 96 98 99 98 98 99 100 99 97 97 99 98 92 90 84 79 78 76 76 75 73 72 72 71 73 72 70 68
102 102 97 94 90 87 90 92 93 95 92 90 93 96 96 96 94 90 89 93 92 87 83 78 76 75 73 72 72 72 72 70 68 68 69 68 66 64
100 99 94 91 91 87 87 89 89 91 88 84 83 82 81 81 81 82 83 82 81 77 77 75 73 70 71 71 70 69 68 67 67 67 66 65 62 57
88 91 90 88 87 86 86 86 87 88 88 84 82 79 76 75 76 74 71 71 72 72 72 72 70 69 70 70 68 66 67 65 64 62 59 57 55 52
80 82 83 83 85 84 84 86 86 86 85 82 79 78 76 73 72 71 70 69 70 70 70 71 69 68 69 67 66 62 62 60 57 55 53 51 51 49
80 77 77 78 80 83 82 81 82 82 81 80 80 77 75 73 73 72 72 71 70 70 71 70 67 67 65 64 62 59 57 55 53 49 49 47 46 45
75 75 74 73 75 77 78 79 80 79 80 78 78 77 75 73 73 73 73 72 71 70 71 69 66 63 62 60 58 55 53 51 48 45 45 44 43 41
65 67 70 70 71 72 72 74 76 77 76 75 77 77 77 76 74 73 70 69 68 68 68 67 61 58 57 55 53 50 48 46 42 41 40 40 39 39
Wind_Direction
318 316 316 318 314 296 285 270 244 235 223 214 214 221 224 226 230 231 242 253 267 274 281 280 294 304 319 335 341 339 345 348 353 354 5 15 8 340
322 320 320 319 313 295 282 267 249 237 238 227 225 227 232 232 236 242 249 256 262 272 273 270 287 297 306 316 330 324 317 319 329 336 338 340 348 353
317 315 315 313 310 299 284 268 254 240 241 232 238 236 236 239 245 248 252 259 265 263 265 276 279 284 283 283 298 293 308 313 313 317 323 328 324 322
308 305 304 304 302 297 286 273 258 251 248 239 236 243 245 244 247 250 258 265 264 269 266 275 278 279 276 274 281 296 303 302 304 308 310 309 313 315
295 295 296 295 289 288 285 275 261 255 251 251 245 242 249 251 253 263 268 272 261 264 270 267 270 270 275 280 283 286 290 292 296 298 298 299 303 305
283 285 284 285 285 283 276 270 264 258 256 253 255 254 251 254 255 254 265 268 260 265 266 265 269 269 272 279 283 284 285 286 288 289 287 290 294 298
275 274 274 276 276 275 274 270 265 261 257 256 257 258 261 263 259 261 266 262 263 264 266 267 266 271 274 275 277 279 280 283 284 285 285 287 289 289
274 272 271 269 268 268 268 266 262 260 259 259 259 261 264 262 262 267 269 270 270 270 273 274 274 274 275 276 278 278 280 280 279 280 283 285 287 286
275 274 272 269 266 265 263 262 263 262 258 254 253 258 263 264 265 264 267 268 268 269 272 274 275 277 278 280 279 279 280 281 280 280 282 284 286 285
268 271 271 270 268 266 263 261 260 259 260 258 256 258 259 262 263 265 268 271 273 274 274 274 276 277 278 277 277 278 279 281 280 279 281 284 284 284
266 267 270 270 270 268 265 264 261 259 260 259 258 258 258 260 263 266 269 270 270 272 273 274 275 276 277 278 279 280 280 280 281 281 281 282 282 282
263 272 272 272 269 265 264 264 263 263 262 260 260 261 261 262 264 265 267 270 271 272 274 275 276 276 276 277 277 278 279 279 282 282 280 281 280 279
271 270 273 270 268 267 264 264 264 263 261 262 263 264 264 264 266 267 268 270 271 275 276 278 279 278 278 279 279 280 280 281 280 279 278 278 276 274
277 276 274 275 268 267 266 267 264 263 263 264 264 266 267 267 270 270 271 272 276 278 279 280 280 281 281 280 279 279 278 278 278 278 276 275 274 274
281 281 278 272 270 267 267 266 268 266 264 265 267 267 268 269 271 272 273 276 279 281 281 280 281 282 280 279 280 279 278 278 278 277 276 276 275 274
279 280 276 272 271 267 268 266 266 267 266 265 266 268 269 271 273 272 274 275 277 280 280 279 280 280 279 279 279 279 279 278 277 278 277 276 275 274
277 276 275 271 268 268 265 265 265 265 267 268 266 267 269 271 272 272 273 275 278 278 277 277 278 278 277 278 279 279 278 278 278 278 278 277 275 273
274 272 271 269 266 265 264 262 263 264 265 266 267 270 271 272 272 274 275 276 275 274 275 276 278 279 279 279 280 278 279 280 279 278 277 275 273 272
271 272 269 268 265 262 261 262 262 262 262 263 266 268 271 271 273 273 273 273 273 273 275 276 277 278 279 279 278 279 279 279 278 277 276 274 273 270
269 269 268 266 264 263 261 260 260 259 260 261 263 265 267 269 270 271 272 272 273 274 274 275 276 278 278 278 276 277 278 278 276 276 274 273 271 270
270 268 266 264 263 262 260 260 259 260 261 261 261 263 265 267 268 269 269 271 271 273 274 275 276 276 276 275 275 277 277 276 275 273 273 272 271 269
268 268 266 263 261 260 259 259 258 258 259 260 261 262 263 264 265 266 267 269 270 272 272 274 273 273 273 273 274 275 275 273 271 271 271 270 268 266
267 266 266 264 262 260 258 258 258 258 259 259 258 259 261 264 265 266 267 267 267 269 271 269 271 270 270 271 273 272 272 270 269 269 268 267 266 265
Height
10571 10567 10563 10559 10556 10554 10552 10552 10552 10552 10554 10555 10557 10558 10559 10559 10560 10560 10560 10561 10561 10561 10560 10559 10558 10556 10555 10552 10551 10549 10546 10544 10542 10540 10538 10537 10535 10535
10567 10563 10560 10556 10553 10551 10549 10549 10549 10548 10549 10551 10552 10552 10553 10553 10553 10553 10554 10554 10554 10553 10553 10553 10551 10550 10549 10547 10545 10543 10542 10540 10538 10538 10537 10537 10536 10537
10562 10559 10556 10552 10550 10548 10546 10545 10544 10544 10543 10546 10545 10546 10546 10546 10546 10546 10546 10546 10546 10546 10545 10545 10544 10543 10542 10541 10539 10537 10535 10534 10534 10533 10533 10533 10534 10533
10555 10553 10550 10549 10545 10543 10541 10540 10539 10538 10537 10537 10538 10537 10537 10538 10538 10538 10537 10538 10536 10537 10537 10536 10535 10535 10533 10532 10530 10530 10528 10527 10526 10525 10525 10526 10526 10527
10545 10544 10542 10541 10539 10537 10535 10533 10533 10532 10530 10528 10529 10530 10529 10529 10529 10528 10527 10526 10526 10527 10526 10525 10524 10523 10522 10522 10522 10521 10520 10519 10518 10517 10515 10515 10516 10516
10533 10532 10530 10530 10528 10527 10526 10524 10524 10522 10521 10520 10519 10520 10519 10520 10518 10517 10517 10515 10516 10514 10514 10513 10512 10511 10510 10509 10509 10508 10508 10507 10507 10507 10506 10506 10505 10504
10515 10515 10515 10515 10514 10513 10513 10511 10511 10510 10509 10509 10507 10506 10507 10508 10506 10504 10503 10503 10501 10500 10499 10499 10497 10497 10496 10495 10494 10493 10493 10493 10494 10493 10493 10493 10492 10492
10495 10495 10495 10495 10496 10496 10496 10495 10494 10493 10493 10494 10492 10490 10491 10490 10488 10487 10487 10486 10486 10487 10485 10483 10481 10480 10479 10479 10479 10477 10476 10475 10476 10476 10476 10476 10476 10475
10473 10472 10471 10473 10473 10473 10474 10474 10474 10474 10474 10474 10472 10470 10470 10470 10468 10468 10468 10468 10468 10466 10466 10462 10462 10460 10461 10460 10459 10456 10455 10455 10455 10453 10452 10453 10454 10454
10449 10447 10445 10445 10448 10448 10447 10449 10449 10449 10452 10454 10452 10446 10448 10447 10446 10446 10445 10447 10448 10445 10446 10442 10439 10440 10439 10437 10435 10434 10432 10431 10431 10430 10429 10428 10427 10427
10421 10421 10421 10422 10421 10420 10419 10420 10420 10421 10427 10426 10425 10424 10423 10422 10422 10420 10422 10425 10424 10422 10419 10422 10417 10418 10417 10413 10411 10409 10407 10405 10404 10404 10402 10401 10399 10398
10393 10392 10392 10392 10392 10392 10388 10390 10390 10392 10395 10396 10397 10396 10397 10398 10398 10397 10396 10396 10396 10396 10391 10395 10391 10392 10392 10387 10385 10381 10378 10376 10375 10374 10373 10372 10370 10368
10360 10359 10360 10359 10358 10360 10359 10360 10360 10361 10363 10365 10366 10365 10366 10369 10370 10370 10369 10370 10369 10367 10367 10364 10361 10360 10362 10361 10355 10352 10349 10347 10343 10342 10340 10338 10337 10337
10325 10324 10325 10328 10328 10328 10330 10330 10330 10332 10333 10336 10337 10336 10337 10339 10340 10340 10342 10341 10341 10340 10338 10335 10334 10331 10330 10329 10326 10319 10317 10314 10311 10310 10308 10307 10307 10307
10293 10292 10292 10293 10295 10296 10297 10299 10301 10301 10303 10305 10306 10306 10308 10309 10311 10312 10311 10311 10312 10309 10308 10307 10305 10302 10300 10297 10293 10288 10287 10286 10282 10281 10280 10280 10281 10281
10258 10256 10257 10259 10261 10264 10266 10268 10270 10272 10273 10274 10276 10277 10279 10280 10281 10283 10284 10282 10281 10279 10280 10279 10277 10276 10273 10270 10267 10264 10263 10260 10258 10258 10254 10253 10255 10255
10223 10220 10221 10224 10226 10230 10234 10236 10240 10242 10244 10246 10248 10250 10251 10252 10252 10254 10256 10256 10256 10254 10253 10253 10252 10251 10249 10246 10244 10242 10239 10236 10235 10233 10231 10230 10231 10232
10185 10182 10184 10189 10193 10197 10200 10205 10209 10214 10217 10219 10222 10223 10224 10224 10225 10228 10230 10231 10230 10230 10228 10228 10229 10229 10225 10222 10221 10218 10216 10215 10214 10211 10209 10207 10208 10212
10150 10149 10152 10154 10159 10165 10170 10174 10179 10185 10190 10193 10196 10198 10199 10200 10203 10203 10205 10206 10206 10206 10206 10204 10205 10206 10203 10200 10200 10198 10195 10194 10192 10190 10189 10187 10187 10191
10116 10119 10121 10123 10129 10134 10139 10144 10149 10154 10161 10167 10170 10172 10174 10176 10179 10181 10182 10183 10184 10184 10183 10183 10184 10184 10181 10179 10178 10179 10175 10173 10173 10172 10170 10170 10170 10172
10083 10088 10091 10095 10101 10106 10111 10117 10123 10128 10135 10141 10144 10147 10150 10153 10155 10159 10160 10161 10162 10162 10160 10161 10163 10161 10160 10158 10157 10158 10156 10155 10155 10155 10154 10154 10154 10155
10057 10059 10064 10070 10073 10079 10085 10090 10096 10103 10109 10115 10119 10123 10126 10129 10132 10136 10138 10139 10140 10140 10138 10139 10141 10141 10139 10138 10138 10139 10139 10137 10138 10139 10139 10139 10140 10140
10035 10038 10039 10043 10047 10052 10059 10065 10071 10078 10085 10091 10093 10097 10102 10105 10109 10112 10114 10116 10117 10118 10116 10117 10121 10121 10120 10120 10121 10122 10122 10122 10123 10124 10125 10125 10126 10126